Regional Weather Roundup
Issued by NWS

Home | Current Version | Previous Version | Text Only | Print | Product List | Glossary On
Versions: 1 2 3 4 5 6 7 8 9 10 11 12 13 14 15 16 17 18 19 20 21 22 23 24 25 26 27 28 29 30 31 32 33 34 35 36 37 38 39 40 41 42 43 44 45 46 47 48 49 50
000
ASUS44 KBMX 061710
RWRAL

ALABAMA REGIONAL WEATHER ROUNDUP
NATIONAL WEATHER SERVICE BIRMINGHAM AL
1100 AM CST FRI MAR 06 2015

NOTE: "FAIR" INDICATES FEW OR NO CLOUDS BELOW 12,000 FEET
WITH NO SIGNIFICANT WEATHER AND/OR OBSTRUCTIONS TO VISIBILITY.

THE REMARK "TC" DENOTES TEMPERATURE IN DEGREES CELSIUS.

ALZ001>011-014-016>018-020-061800-
NORTH ALABAMA

CITY           SKY/WX    TMP DP  RH WIND       PRES   REMARKS
MUSCLE SHOALS  SUNNY     31  13  47 N5        30.57F WCI  26
HUNTSVILLE     SUNNY     30  17  58 N6        30.55S WCI  24
DECATUR        SUNNY     28  14  55 N7        30.56S WCI  21
HALEYVILLE       N/A     29  16  58 VRB3      30.55S
GADSDEN        CLOUDY    32  19  59 NW3       30.51R
$$

ALZ012-013-022-023-030>036-040>044-061800-
WEST CENTRAL ALABAMA

CITY           SKY/WX    TMP DP  RH WIND       PRES   REMARKS
TUSCALOOSA     SUNNY     36  17  46 VRB5      30.56F WCI  32
$$

ALZ015-024>027-033>036-040>044-061800-
CENTRAL ALABAMA

CITY           SKY/WX    TMP DP  RH WIND       PRES   REMARKS
BIRMINGHAM     MOSUNNY   34  23  64 N9        30.53S WCI  27
MONTGOMERY     PTSUNNY   39  25  57 VRB3      30.49F
SHELBY CO ARPT   N/A     35  24  64 VRB5      30.51S WCI  31
MAXWELL AFB    PTSUNNY   39  27  60 NW9       30.48F WCI  33
GREENVILLE     NOT AVBL
$$

ALZ019-021-028-029-037-038-045>048-061800-
EAST CENTRAL ALABAMA

CITY           SKY/WX    TMP DP  RH WIND       PRES   REMARKS
ANNISTON       PTSUNNY   34  24  67 CALM      30.50F
ALEXANDER CITY PTSUNNY   42  26  54 N5        30.46S
AUBURN         CLOUDY    39  28  65 NE5       30.45S
$$

ALZ051>064-061800-
SOUTHWEST ALABAMA

CITY           SKY/WX    TMP DP  RH WIND       PRES   REMARKS
MOBILE         PTSUNNY   44  16  32 N15       30.47S
BROOKLEY FIELD SUNNY     44  20  38 N18G25    30.47F
EVERGREEN      SUNNY     40  23  50 N9G18     30.47S WCI  34
$$

ALZ049-050-065>069-061800-
SOUTHEAST ALABAMA

CITY           SKY/WX    TMP DP  RH WIND       PRES   REMARKS
DOTHAN         CLOUDY    42  34  73 NE8       30.44F
OZARK          CLOUDY    42  31  63 N9        30.42R
TROY           CLOUDY    39  28  64 NW9       30.46S WCI  33
EUFAULA        CLOUDY    41  33  73 VRB6      30.43S
$$


USA.gov is the U.S. government's official web portal to all federal, state and local government web resources and services.